Rantoul, IL

9:00 PM CDT on April 30, 2017 (GMT -0500)
Rantoul

Weather History for KTIP - December, 2013

Change the Weather History Date:

Monday, December 9, 2013

  Actual Average (KCMI) Record (KCMI)
Temperature  
Mean Temperature 20 °F -  
Max Temperature 27 °F 39 °F 55 °F (2015)
Min Temperature 12 °F 24 °F 0 °F (2010)
Degree Days  
Heating Degree Days 45    
Moisture  
Dew Point 15 °F    
Average Humidity 75    
Maximum Humidity 87    
Minimum Humidity 58    
Precipitation  
Precipitation 0.00 in - - ()
Sea Level Pressure  
Sea Level Pressure 30.17 in    
Wind  
Wind Speed 11 mph (West)    
Max Wind Speed 18 mph    
Max Gust Speed 24 mph    
Visibility 10 miles    
Events      
Averages and records for this station are not official NWS values.
T = Trace of Precipitation, MM = Missing Value Source: NWS Daily Summary

Daily Weather History Graph

Daily Weather History Graph

Search for Another Location

Airport or City:

Trip Planner

Search our weather history database for the weather conditions in past years. The results will help you decide how hot, cold, wet, or windy it might be!

Date:

Astronomy

Dec. 09, 2013 Rise Set
Actual Time 7:03 AM CST 4:26 PM CST
Civil Twilight 6:33 AM CST 4:56 PM CST
Nautical Twilight 5:59 AM CST 5:30 PM CST
Astronomical Twilight 5:26 AM CST 6:03 PM CST
Moon 11:56 AM CST (12/9) No Moon Set
Length of Visible Light 10h 23m
Length of Day
9h 22m
Waxing Crescent, 51% of the Moon is Illuminated
Dec 9
Waxing Crescent
Dec 17
Full
Dec 25
Last Quarter
Jan 1
New
Jan 7
First Quarter

Hourly Weather History & Observations

Time (CST) Temp. Windchill Dew Point Humidity Pressure Visibility Wind Dir Wind Speed Gust Speed Precip Events Conditions
12:15 AM 27.5 °F 16.8 °F 23.9 °F 86% 30.01 in 10.0 mi WSW 12.7 mph 18.4 mph N/A   Overcast
12:35 AM 27.3 °F 17.1 °F 23.9 °F 87% 30.00 in 10.0 mi WSW 11.5 mph - N/A   Overcast
12:55 AM 27.1 °F 16.9 °F 23.5 °F 86% 30.01 in 10.0 mi West 11.5 mph - N/A   Overcast
1:15 AM 27.1 °F 16.9 °F 23.5 °F 86% 30.01 in 10.0 mi West 11.5 mph - N/A   Overcast
1:35 AM 27.1 °F 15.9 °F 23.5 °F 86% 30.01 in 10.0 mi West 13.8 mph 19.6 mph N/A   Overcast
1:55 AM 27.1 °F 16.9 °F 23.5 °F 86% 30.02 in 7.0 mi West 11.5 mph - N/A   Overcast
2:15 AM 27.1 °F 16.4 °F 23.7 °F 87% 30.03 in 7.0 mi West 12.7 mph 18.4 mph N/A   Overcast
2:35 AM 27.1 °F 15.9 °F 23.7 °F 87% 30.03 in 7.0 mi West 13.8 mph 18.4 mph N/A   Overcast
2:55 AM 27.0 °F 15.2 °F 23.2 °F 86% 30.04 in 7.0 mi West 15.0 mph 21.9 mph N/A   Overcast
3:15 AM 26.8 °F 14.9 °F 22.6 °F 84% 30.04 in 7.0 mi West 15.0 mph - N/A   Overcast
3:35 AM 26.2 °F 13.4 °F 21.6 °F 82% 30.04 in 10.0 mi West 17.3 mph - N/A   Overcast
3:55 AM 26.1 °F 13.6 °F 21.2 °F 82% 30.06 in 10.0 mi West 16.1 mph 20.7 mph N/A   Overcast
4:15 AM 25.7 °F 14.6 °F 21.2 °F 83% 30.07 in 10.0 mi West 12.7 mph 18.4 mph N/A   Overcast
4:35 AM 25.7 °F 14.6 °F 21.2 °F 83% 30.07 in 10.0 mi West 12.7 mph - N/A   Overcast
4:55 AM 25.3 °F 12.6 °F 20.1 °F 81% 30.08 in 10.0 mi West 16.1 mph 21.9 mph N/A   Overcast
5:15 AM 24.8 °F 12.9 °F 19.0 °F 79% 30.08 in 10.0 mi West 13.8 mph 19.6 mph N/A   Overcast
5:35 AM 24.4 °F 11.0 °F 18.3 °F 78% 30.08 in 10.0 mi West 17.3 mph - N/A   Overcast
5:55 AM 24.1 °F 10.6 °F 18.3 °F 79% 30.10 in 10.0 mi West 17.3 mph - N/A   Overcast
6:15 AM 23.9 °F 11.7 °F 18.5 °F 80% 30.11 in 10.0 mi West 13.8 mph 19.6 mph N/A   Overcast
6:35 AM 23.7 °F 12.6 °F 18.3 °F 80% 30.11 in 10.0 mi West 11.5 mph 19.6 mph N/A   Overcast
6:55 AM 23.7 °F 12.1 °F 18.3 °F 80% 30.12 in 10.0 mi West 12.7 mph - N/A   Overcast
7:15 AM 23.5 °F 10.8 °F 18.1 °F 80% 30.13 in 7.0 mi West 15.0 mph - N/A   Overcast
7:35 AM 23.0 °F 10.6 °F 16.5 °F 76% 30.14 in 10.0 mi West 13.8 mph - N/A   Mostly Cloudy
7:55 AM 22.5 °F 10.5 °F 16.7 °F 79% 30.14 in 10.0 mi West 12.7 mph 17.3 mph N/A   Scattered Clouds
8:15 AM 22.5 °F 9.9 °F 16.5 °F 78% 30.16 in 10.0 mi West 13.8 mph - N/A   Clear
8:35 AM 22.1 °F 10.0 °F 15.6 °F 76% 30.16 in 10.0 mi West 12.7 mph 20.7 mph N/A   Clear
8:55 AM 22.1 °F 9.5 °F 15.3 °F 75% 30.16 in 10.0 mi West 13.8 mph - N/A   Clear
9:15 AM 22.3 °F 10.8 °F 15.6 °F 76% 30.16 in 10.0 mi West 11.5 mph 16.1 mph N/A   Clear
9:35 AM 22.1 °F 11.3 °F 15.6 °F 76% 30.16 in 10.0 mi West 10.4 mph - N/A   Clear
9:55 AM 21.9 °F 10.4 °F 15.6 °F 77% 30.18 in 10.0 mi West 11.5 mph - N/A   Scattered Clouds
10:15 AM 21.9 °F 10.4 °F 15.6 °F 77% 30.20 in 10.0 mi WSW 11.5 mph 17.3 mph N/A   Scattered Clouds
10:35 AM 22.3 °F 10.8 °F 16.0 °F 77% 30.21 in 10.0 mi West 11.5 mph - N/A   Scattered Clouds
10:55 AM 22.8 °F 8.9 °F 15.4 °F 73% 30.23 in 10.0 mi West 17.3 mph 23.0 mph N/A   Clear
11:15 AM 22.5 °F 8.0 °F 14.9 °F 73% 30.23 in 10.0 mi West 18.4 mph - N/A   Clear
11:35 AM 22.6 °F 8.3 °F 14.5 °F 71% 30.23 in 10.0 mi West 18.4 mph 23.0 mph N/A   Scattered Clouds
11:55 AM 21.7 °F 8.5 °F 14.0 °F 72% 30.22 in 10.0 mi West 15.0 mph - N/A   Clear
12:15 PM 22.5 °F 9.9 °F 14.7 °F 72% 30.22 in 10.0 mi West 13.8 mph - N/A   Clear
12:35 PM 22.8 °F 10.4 °F 14.7 °F 71% 30.21 in 10.0 mi West 13.8 mph 19.6 mph N/A   Scattered Clouds
12:55 PM 22.5 °F 9.4 °F 13.5 °F 68% 30.22 in 10.0 mi West 15.0 mph 24.2 mph N/A   Clear
1:15 PM 23.0 °F 10.6 °F 13.6 °F 67% 30.22 in 10.0 mi West 13.8 mph - N/A   Clear
1:35 PM 23.0 °F 8.7 °F 13.5 °F 67% 30.21 in 10.0 mi West 18.4 mph 23.0 mph N/A   Clear
1:55 PM 23.0 °F 11.1 °F 13.8 °F 68% 30.22 in 10.0 mi West 12.7 mph 18.4 mph N/A   Clear
2:15 PM 23.4 °F 10.6 °F 13.8 °F 67% 30.21 in 10.0 mi West 15.0 mph - N/A   Clear
2:35 PM 23.4 °F 11.1 °F 13.6 °F 66% 30.21 in 10.0 mi West 13.8 mph - N/A   Clear
2:55 PM 23.0 °F 10.1 °F 13.8 °F 68% 30.21 in 10.0 mi West 15.0 mph - N/A   Clear
3:15 PM 22.5 °F 10.5 °F 13.3 °F 68% 30.22 in 10.0 mi West 12.7 mph - N/A   Clear
3:35 PM 22.1 °F 11.3 °F 13.6 °F 70% 30.23 in 10.0 mi West 10.4 mph - N/A   Clear
3:55 PM 21.2 °F 9.5 °F 12.0 °F 68% 30.24 in 10.0 mi West 11.5 mph - N/A   Clear
4:15 PM 20.8 °F 9.7 °F 11.7 °F 68% 30.25 in 10.0 mi West 10.4 mph - N/A   Clear
4:35 PM 20.3 °F 9.8 °F 12.2 °F 71% 30.24 in 10.0 mi West 9.2 mph - N/A   Clear
4:55 PM 20.3 °F - 12.7 °F 73% 30.25 in 10.0 mi Calm Calm - N/A   Clear
5:15 PM 20.3 °F - 13.1 °F 74% 30.25 in 10.0 mi Calm Calm - N/A   Clear
5:35 PM 20.3 °F - 12.9 °F 73% 30.25 in 10.0 mi Calm Calm - N/A   Clear
5:55 PM 20.1 °F - 12.2 °F 71% 30.26 in 10.0 mi Calm Calm - N/A   Clear
6:15 PM 19.9 °F 8.6 °F 12.4 °F 72% 30.26 in 10.0 mi West 10.4 mph - N/A   Clear
6:35 PM 19.9 °F - 12.2 °F 72% 30.26 in 10.0 mi Calm Calm - N/A   Clear
6:55 PM 19.8 °F - 12.6 °F 74% 30.25 in 10.0 mi Calm Calm - N/A   Clear
7:15 PM 19.4 °F - 10.8 °F 69% 30.25 in 10.0 mi Calm Calm - N/A   Clear
7:35 PM 19.4 °F - 11.1 °F 70% 30.25 in 10.0 mi Calm Calm - N/A   Clear
7:55 PM 19.2 °F 8.4 °F 11.7 °F 72% 30.25 in 10.0 mi WNW 9.2 mph - N/A   Clear
8:15 PM 19.0 °F 8.2 °F 10.6 °F 70% 30.25 in 10.0 mi WNW 9.2 mph - N/A   Clear
8:35 PM 18.9 °F 13.7 °F 11.1 °F 72% 30.25 in 10.0 mi WNW 3.5 mph - N/A   Clear
8:55 PM 18.3 °F - 10.0 °F 70% 30.25 in 10.0 mi Calm Calm - N/A   Clear
9:15 PM 18.0 °F 7.7 °F 9.9 °F 71% 30.24 in 10.0 mi NW 8.1 mph - N/A   Clear
9:35 PM 17.6 °F - 9.3 °F 70% 30.24 in 10.0 mi Calm Calm - N/A   Clear
9:55 PM 17.2 °F - 9.1 °F 71% 30.24 in 10.0 mi Calm Calm - N/A   Clear
10:15 PM 16.2 °F - 7.9 °F 70% 30.25 in 10.0 mi Calm Calm - N/A   Scattered Clouds
10:35 PM 14.9 °F - 2.5 °F 58% 30.25 in 10.0 mi Calm Calm - N/A   Scattered Clouds
10:55 PM 14.9 °F - 5.4 °F 66% 30.25 in 10.0 mi Calm Calm - N/A   Clear
11:15 PM 14.4 °F - 7.0 °F 73% 30.24 in 10.0 mi Calm Calm - N/A   Scattered Clouds
11:35 PM 13.1 °F - 6.3 °F 74% 30.25 in 10.0 mi Calm Calm - N/A   Clear
11:55 PM 12.2 °F - 2.3 °F 65% 30.26 in 10.0 mi Calm Calm - N/A   Clear